When you browse on this site, cookies collect data to enhance your experience and personalize the content and advertising you see.
Visit our Privacy Policy to learn more. By continuing to use the site, you agree to this use of cookies and data.
  • In Switzerland
  • List of Countries
  • For 7 days
  • Water Temperature
  • Satellite Maps
  • Weather Map
  • Weather Widgets
  • user-avatar
    Login

    Hourly Weather Tomashivka

    Today, 17 July, Wednesday

    Time Temperature Precipitation Wind Pressure Humidity
    00:00 +16°C° 0 mm 1 mps 735 mmHg 78%
    01:00 +15°C° 0 mm 2 mps 735 mmHg 81%
    02:00 +15°C° 0 mm 2 mps 735 mmHg 83%
    03:00 +14°C° 0 mm 2 mps 735 mmHg 84%
    04:00 +13°C° 0 mm 3 mps 735 mmHg 84%
    05:00 +13°C° 0 mm 3 mps 735 mmHg 85%
    06:00 +14°C° 0 mm 3 mps 735 mmHg 82%
    07:00 +17°C° 0 mm 4 mps 736 mmHg 79%
    08:00 +19°C° 0 mm 4 mps 736 mmHg 75%
    09:00 +18°C° 0.3 mm 4 mps 736 mmHg 75%
    10:00 +18°C° 0.3 mm 3 mps 736 mmHg 74%
    11:00 +18°C° 0.3 mm 3 mps 736 mmHg 74%
    12:00 +19°C° 0 mm 3 mps 736 mmHg 69%
    13:00 +21°C° 0 mm 4 mps 735 mmHg 64%
    14:00 +22°C° 0 mm 4 mps 735 mmHg 59%
    15:00 +22°C° 0 mm 4 mps 735 mmHg 60%
    16:00 +21°C° 0 mm 4 mps 735 mmHg 61%
    17:00 +21°C° 0 mm 4 mps 735 mmHg 62%
    18:00 +20°C° 0 mm 4 mps 735 mmHg 68%
    19:00 +18°C° 0 mm 3 mps 735 mmHg 74%
    20:00 +17°C° 0 mm 3 mps 735 mmHg 81%
    21:00 +16°C° 0 mm 3 mps 735 mmHg 83%
    22:00 +14°C° 0 mm 3 mps 735 mmHg 86%
    23:00 +13°C° 0 mm 3 mps 735 mmHg 89%

    Tomorrow, 18 July, Thursday

    Time Temperature Precipitation Wind Pressure Humidity
    00:00 +13°C° 0 mm 3 mps 735 mmHg 90%
    01:00 +13°C° 0 mm 3 mps 735 mmHg 92%
    02:00 +12°C° 0 mm 3 mps 736 mmHg 93%
    03:00 +12°C° 0 mm 3 mps 736 mmHg 93%
    04:00 +12°C° 0 mm 3 mps 736 mmHg 94%
    05:00 +11°C° 0 mm 3 mps 736 mmHg 94%
    06:00 +13°C° 0 mm 3 mps 736 mmHg 87%
    07:00 +15°C° 0 mm 4 mps 736 mmHg 80%
    08:00 +18°C° 0 mm 4 mps 737 mmHg 73%
    09:00 +19°C° 0 mm 4 mps 737 mmHg 68%
    10:00 +20°C° 0 mm 4 mps 737 mmHg 63%
    11:00 +21°C° 0 mm 4 mps 737 mmHg 58%
    12:00 +22°C° 0 mm 4 mps 737 mmHg 56%
    13:00 +22°C° 0 mm 5 mps 737 mmHg 55%
    14:00 +23°C° 0 mm 5 mps 737 mmHg 53%
    15:00 +23°C° 0 mm 5 mps 737 mmHg 54%
    16:00 +23°C° 0 mm 5 mps 737 mmHg 55%
    17:00 +22°C° 0 mm 5 mps 737 mmHg 56%
    18:00 +21°C° 0 mm 4 mps 738 mmHg 62%
    19:00 +19°C° 0 mm 3 mps 738 mmHg 69%
    20:00 +18°C° 0 mm 2 mps 738 mmHg 76%
    21:00 +17°C° 0 mm 2 mps 738 mmHg 79%
    22:00 +16°C° 0 mm 2 mps 739 mmHg 82%
    23:00 +15°C° 0 mm 2 mps 739 mmHg 86%

    Day after tomorrow, 19 July, Friday

    Time Temperature Precipitation Wind Pressure Humidity
    00:00 +15°C° 0 mm 2 mps 739 mmHg 87%
    01:00 +15°C° 0 mm 2 mps 739 mmHg 89%
    02:00 +14°C° 0 mm 2 mps 739 mmHg 91%
    03:00 +14°C° 0 mm 2 mps 739 mmHg 91%
    04:00 +14°C° 0 mm 2 mps 740 mmHg 92%
    05:00 +14°C° 0 mm 2 mps 740 mmHg 92%
    06:00 +16°C° 0 mm 2 mps 740 mmHg 85%
    07:00 +17°C° 0 mm 2 mps 740 mmHg 79%
    08:00 +19°C° 0 mm 2 mps 741 mmHg 72%
    09:00 +20°C° 0 mm 2 mps 741 mmHg 66%
    10:00 +23°C° 0 mm 2 mps 741 mmHg 60%
    11:00 +24°C° 0 mm 2 mps 741 mmHg 54%
    12:00 +25°C° 0 mm 2 mps 741 mmHg 51%
    13:00 +25°C° 0 mm 2 mps 741 mmHg 48%
    14:00 +26°C° 0 mm 2 mps 741 mmHg 45%
    15:00 +26°C° 0 mm 3 mps 741 mmHg 47%
    16:00 +26°C° 0 mm 3 mps 740 mmHg 48%
    17:00 +26°C° 0 mm 3 mps 740 mmHg 49%
    18:00 +24°C° 0 mm 2 mps 740 mmHg 56%
    19:00 +21°C° 0 mm 2 mps 741 mmHg 63%
    20:00 +21°C° 0 mm 1 mps 741 mmHg 69%
    21:00 +20°C° 0 mm 1 mps 741 mmHg 70%
    22:00 +20°C° 0 mm 1 mps 741 mmHg 72%
    23:00 +17°C° 0 mm 0 mps 741 mmHg 73%

    20 July, Saturday

    Time Temperature Precipitation Wind Pressure Humidity
    00:00 +19°C° 0 mm 1 mps 741 mmHg 74%
    01:00 +18°C° 0 mm 1 mps 741 mmHg 75%
    02:00 +18°C° 0 mm 1 mps 741 mmHg 75%
    03:00 +18°C° 0 mm 1 mps 741 mmHg 76%
    04:00 +18°C° 0 mm 1 mps 741 mmHg 77%
    05:00 +17°C° 0 mm 2 mps 741 mmHg 78%
    06:00 +18°C° 0 mm 2 mps 741 mmHg 75%
    07:00 +20°C° 0 mm 2 mps 742 mmHg 71%
    08:00 +23°C° 0 mm 2 mps 742 mmHg 68%
    09:00 +24°C° 0 mm 2 mps 742 mmHg 64%
    10:00 +25°C° 0 mm 2 mps 742 mmHg 60%
    11:00 +27°C° 0 mm 2 mps 742 mmHg 56%
    12:00 +27°C° 0 mm 2 mps 742 mmHg 53%
    13:00 +28°C° 0 mm 2 mps 742 mmHg 49%
    14:00 +29°C° 0 mm 2 mps 742 mmHg 46%
    15:00 +29°C° 0 mm 2 mps 742 mmHg 46%
    16:00 +29°C° 0 mm 1 mps 742 mmHg 46%
    17:00 +29°C° 0 mm 1 mps 742 mmHg 47%
    18:00 +26°C° 0.6 mm 2 mps 742 mmHg 60%
    19:00 +23°C° 0.6 mm 2 mps 742 mmHg 74%
    20:00 +19°C° 0.6 mm 3 mps 742 mmHg 87%
    21:00 +19°C° 0.4 mm 2 mps 742 mmHg 86%
    22:00 +19°C° 0.4 mm 2 mps 742 mmHg 85%
    23:00 +19°C° 0.4 mm 1 mps 742 mmHg 85%

    21 July, Sunday

    Time Temperature Precipitation Wind Pressure Humidity
    00:00 +19°C° 0.2 mm 1 mps 742 mmHg 85%
    01:00 +19°C° 0.2 mm 1 mps 742 mmHg 85%
    02:00 +17°C° 0.2 mm 2 mps 742 mmHg 85%
    03:00 +18°C° 0 mm 1 mps 742 mmHg 85%
    04:00 +18°C° 0 mm 1 mps 742 mmHg 86%
    05:00 +18°C° 0 mm 1 mps 742 mmHg 86%
    06:00 +20°C° 0 mm 1 mps 742 mmHg 81%
    07:00 +20°C° 0 mm 0 mps 742 mmHg 76%
    08:00 +21°C° 0 mm 0 mps 742 mmHg 71%
    09:00 +23°C° 0 mm 0 mps 743 mmHg 65%
    10:00 +25°C° 0 mm 0 mps 743 mmHg 59%
    11:00 +29°C° 0 mm 1 mps 743 mmHg 53%
    12:00 +29°C° 0 mm 1 mps 743 mmHg 50%
    13:00 +29°C° 0 mm 2 mps 743 mmHg 47%
    14:00 +30°C° 0 mm 2 mps 743 mmHg 44%
    15:00 +30°C° 0 mm 2 mps 742 mmHg 45%
    16:00 +30°C° 0 mm 2 mps 742 mmHg 46%
    17:00 +30°C° 0 mm 2 mps 742 mmHg 47%
    18:00 +28°C° 0 mm 2 mps 742 mmHg 52%
    19:00 +26°C° 0 mm 1 mps 742 mmHg 57%
    20:00 +25°C° 0 mm 1 mps 742 mmHg 62%
    21:00 +24°C° 0 mm 1 mps 742 mmHg 63%
    22:00 +24°C° 0 mm 1 mps 742 mmHg 64%
    23:00 +23°C° 0 mm 1 mps 742 mmHg 65%

    22 July, Monday

    Time Temperature Precipitation Wind Pressure Humidity
    00:00 +23°C° 0 mm 1 mps 742 mmHg 66%
    01:00 +22°C° 0 mm 1 mps 742 mmHg 67%
    02:00 +22°C° 0 mm 1 mps 742 mmHg 68%
    03:00 +22°C° 0 mm 1 mps 742 mmHg 70%
    04:00 +21°C° 0 mm 1 mps 742 mmHg 71%
    05:00 +21°C° 0 mm 1 mps 742 mmHg 72%
    06:00 +23°C° 0 mm 1 mps 742 mmHg 68%
    07:00 +25°C° 0 mm 1 mps 742 mmHg 63%
    08:00 +27°C° 0 mm 2 mps 742 mmHg 59%
    09:00 +28°C° 0 mm 2 mps 742 mmHg 55%
    10:00 +29°C° 0 mm 2 mps 742 mmHg 50%
    11:00 +31°C° 0 mm 2 mps 742 mmHg 46%
    12:00 +31°C° 0 mm 2 mps 742 mmHg 45%
    13:00 +31°C° 0 mm 2 mps 742 mmHg 44%
    14:00 +32°C° 0 mm 2 mps 741 mmHg 43%
    15:00 +31°C° 0.2 mm 2 mps 741 mmHg 49%
    16:00 +29°C° 0.2 mm 2 mps 740 mmHg 54%
    17:00 +28°C° 0.2 mm 2 mps 740 mmHg 60%
    18:00 +26°C° 0.7 mm 2 mps 740 mmHg 68%
    19:00 +25°C° 0.7 mm 2 mps 740 mmHg 76%
    20:00 +23°C° 0.7 mm 1 mps 740 mmHg 84%
    21:00 +22°C° 1.5 mm 1 mps 740 mmHg 86%
    22:00 +22°C° 1.5 mm 1 mps 740 mmHg 87%
    23:00 +21°C° 1.5 mm 1 mps 740 mmHg 89%
    Show more